Overview Statistics Trail Chart Weather Telemetry Raw packets
 

This is the latest recevied weather packets stored in our database for station/object HG5CJW-10. If no packets are shown the sender has not sent any weather packets the latest 10 day(s).

<< 3 4 5 6 7 8 9 >>
Time Temp. Humidity Pressure Rain* Wind** Luminosity Snow
1788555018 23.89° C 50% 1033.8 hPa - - - -
1788554118 23.89° C 50% 1033.8 hPa - - - -
1788553218 23.89° C 50% 1033.5 hPa - - - -
1788552313 23.89° C 50% 1034 hPa - - - -
1788551413 23.89° C 50% 1034.1 hPa - - - -
1788550513 23.89° C 50% 1034.1 hPa - - - -
1788549613 23.89° C 49% 1034.1 hPa - - - -
1788548712 24.44° C 49% 1034.3 hPa - - - -
1788547812 24.44° C 49% 1034.2 hPa - - - -
1788546912 24.44° C 49% 1034.3 hPa - - - -
1788544212 23.33° C 50% 1034.2 hPa - - - -
1788543312 23.89° C 49% 1034.1 hPa - - - -
1788542412 24.44° C 48% 1034.1 hPa - - - -
1788541512 25° C 47% 1034.2 hPa - - - -
1788540612 25° C 46% 1034.4 hPa - - - -
1788539712 25.56° C 44% 1034.2 hPa - - - -
1788538806 26.11° C 42% 1034.6 hPa - - - -
1788537906 26.11° C 41% 1034.7 hPa - - - -
1788537006 26.11° C 41% 1034.9 hPa - - - -
1788536106 26.67° C 40% 1035 hPa - - - -
1788535221 26.67° C 40% 1035.1 hPa - - - -
1788534306 26.67° C 39% 1035 hPa - - - -
1788533406 27.22° C 37% 1035 hPa - - - -
1788532506 27.22° C 38% 1035.1 hPa - - - -
1788530706 27.22° C 38% 1034.9 hPa - - - -

* Rain since midnight (hover to see other rain measurements)
** Current wind speed in m/s (hover to see current wind gust speed)